[Date Prev][Date Next][Thread Prev][Thread Next] - [Date Index][Thread Index][Author Index]
2 Line ISS Keps 10-25
- Subject: [sarex] 2 Line ISS Keps 10-25
- From: "Dave Larsen Ph.D." <doc@xxxxxxxxxxx>
- Date: Fri, 25 Oct 2002 04:33:37 -0700
ISS
1 25544U 98067A 02298.26001157 .00032028 00000-0 43400-3 0 3008
2 25544 51.6348 119.7707 0014992 70.6270 284.7897 15.57255694224257
----
Via the sarex mailing list at AMSAT.ORG courtesy of AMSAT-NA.
To unsubscribe, send "unsubscribe sarex" to Majordomo@amsat.org
AMSAT Home